Overview Statistics Trail Chart Weather Telemetry Raw packets
 

This is the latest recevied weather packets stored in our database for station/object VK5GR-12. If no packets are shown the sender has not sent any weather packets the latest 10 day(s).

<< 18 19 20 21 22 23 24 >>
Time Temp. Humidity Pressure Rain* Wind** Luminosity Snow
1788234852 20.56° C 54% 1015.7 hPa 0 mm - 171 W/m² -
1788233953 20.56° C 53% 1015.6 hPa 0 mm - 298 W/m² -
1788233050 20° C 54% 1016 hPa 0 mm - 224 W/m² -
1788232146 20.56° C 51% 1016.6 hPa 0 mm - 145 W/m² -
1788231242 22.22° C 48% 1016.7 hPa 0 mm - 552 W/m² -
1788230340 21.67° C 48% 1016.6 hPa 0 mm - 576 W/m² -
1788229438 21.11° C 48% 1017.1 hPa 0 mm - 577 W/m² -
1788228535 20° C 51% 1017.6 hPa 0 mm - 404 W/m² -
1788227632 18.89° C 54% 1017.7 hPa 0 mm - 170 W/m² -
1788226729 18.89° C 56% 1017.5 hPa 0 mm - 124 W/m² -
1788225827 18.89° C 53% 1017.6 hPa 0 mm - 284 W/m² -
1788224933 18.89° C 51% 1018.1 hPa 0 mm - 120 W/m² -
1788224023 18.89° C 52% 1018.4 hPa 0 mm - 89 W/m² -
1788223118 18.89° C 53% 1018.2 hPa 0 mm - 89 W/m² -
1788222217 19.44° C 50% 1018.2 hPa 0 mm - 170 W/m² -
1788221315 20° C 49% 1018.3 hPa 0 mm - 223 W/m² -
1788220410 19.44° C 49% 1018.7 hPa 0 mm - 356 W/m² -
1788219506 18.89° C 49% 1018.6 hPa 0 mm - 215 W/m² -
1788218604 18.89° C 50% 1018.6 hPa 0 mm - 85 W/m² -
1788217703 18.33° C 49% 1018.7 hPa 0 mm - 96 W/m² -
1788216798 18.33° C 51% 1018.7 hPa 0 mm - 118 W/m² -
1788215895 17.78° C 52% 1018.7 hPa 0 mm - 85 W/m² -
1788214996 17.78° C 53% 1019.1 hPa 0 mm - 57 W/m² -
1788214092 17.78° C 54% 1019.2 hPa 0 mm - 50 W/m² -
1788213190 16.67° C 55% 1019.2 hPa 0 mm - 48 W/m² -

* Rain latest hour (hover to see other rain measurements)
** Current wind speed in m/s (hover to see current wind gust speed)